Location: Saint-Usage
(47.1052°N, 5.2587°E)
Time: 12:11:29
(UTC+01:00)

Envisat - Visible Passes

Search period start: 29 November 2022 00:00
Search period end: 09 December 2022 00:00
Orbit: 763 x 765 km, 98.2° (Epoch: 29 November)

Date Brightness Start Highest point End Pass type
(mag) Time Alt. Az. Time Alt. Az. Time Alt. Az.
29 Nov 4.9 04:31:23 10° NNE 04:33:31 24° NE 04:33:31 24° NE visible
29 Nov 4.2 06:10:53 10° N 06:13:41 23° NW 06:13:41 23° NW visible
29 Nov 6.0 17:30:52 10° WSW 17:33:25 14° W 17:35:59 10° WNW visible
30 Nov 5.7 03:55:03 10° NE 03:55:54 14° NE 03:55:54 14° NE visible
30 Nov 4.1 05:33:24 10° N 05:36:03 29° N 05:36:03 29° N visible
01 Dec 4.6 04:56:18 10° NNE 04:58:27 26° NNE 04:58:27 26° NNE visible
01 Dec 4.6 06:36:36 10° NNW 06:38:37 16° NW 06:38:37 16° NW visible
02 Dec 5.4 04:19:34 10° NNE 04:20:50 17° NE 04:20:50 17° NE visible
02 Dec 4.4 05:58:44 10° N 06:01:00 23° NNW 06:01:00 23° NNW visible
03 Dec 4.5 05:21:23 10° N 05:23:24 24° N 05:23:24 24° N visible
03 Dec 4.9 07:03:15 10° NW 07:03:34 10° NW 07:03:34 10° NW visible
04 Dec 5.1 04:44:23 10° NNE 04:45:48 19° NNE 04:45:48 19° NNE visible
04 Dec 4.6 06:24:17 10° NNW 06:25:58 17° NNW 06:25:58 17° NNW visible
04 Dec 6.4 17:46:37 10° W 17:46:43 10° W 17:46:49 10° W visible
05 Dec 5.7 04:07:48 10° NNE 04:08:12 12° NE 04:08:12 12° NE visible
05 Dec 4.6 05:46:37 10° N 05:48:23 20° N 05:48:23 20° N visible
06 Dec 4.9 05:09:24 10° NNE 05:10:48 19° N 05:10:48 19° N visible
06 Dec 4.9 06:50:19 10° NNW 06:50:58 12° NW 06:50:58 12° NW visible
07 Dec 5.5 04:32:30 10° NNE 04:33:13 14° NNE 04:33:13 14° NNE visible
07 Dec 4.8 06:12:04 10° N 06:13:23 16° NNW 06:13:23 16° NNW visible
07 Dec 6.0 17:32:13 10° WSW 17:34:35 13° W 17:36:57 10° WNW visible
08 Dec 4.9 05:34:33 10° N 05:35:50 18° N 05:35:50 18° N visible
